Voltar ao catálogo

NETSAT-1

AtivoCiênciaPO
NORAD 46506·PAYLOAD·🇩🇪 Germany

Lançado Sep 28, 2020 de Plesetsk Cosmodrome

Loading…

Próximas Passagens (próximas 24 horas)

TLE

AtualizadoSource: Space-Track

Época: Sep 13, 2026, 22:53 UTC

1 46506U 20068W   26256.95364847  .00010452  00000-0  29613-3 0  9990
2 46506  97.8778 263.8639 0006218  66.5978 293.5918 15.36458597328928

Acompanhe NETSAT-1 em tempo real com AllMySat

Download on the App Store